Other Surface Observations
Issued by NWS Charleston, SC

Home | Current Version | Previous Version | Text Only | Print | Product List | Glossary On
Versions: 1 2 3 4 5 6 7 8 9 10 11 12 13 14 15 16 17 18 19 20 21 22 23 24 25 26 27 28 29 30 31 32 33 34 35 36 37 38 39 40 41 42 43 44 45 46 47 48 49 50
000
SXUS52 KCHS 291428
OSOCHS

MARINE OBSERVATIONS
NATIONAL WEATHER SERVICE CHARLESTON SC
1000 AM EDT FRI JUL 29 2016

...DOWNTOWN CHARLESTON AND HARBOR...

CITY           SKY/WX    TMP DP  RH WIND       PRES   REMARKS
WATERFRONT PRK   N/A     85  72  64 W5        29.97S HX  91

...LAKE MOULTRIE...

CITY           SKY/WX    TMP DP  RH WIND       PRES   REMARKS
PINOPOLIS        N/A     84  73  70 W13       29.91S HX  91

...LAKE AND SUPPLEMENTAL COASTAL OBSERVATIONS...

STATION/POSITION TIME  TEMP    WIND        PRES    WAVE   SWELL
                       AIR SEA DIR/SP/G            HT/PER HT/PER/DIR
                 (UTC) (F)     (DEG/KT/KT) (MB)    (FT/S) (FT/S/D)
FORT PULASKI     1400   86 87  290/ 11/ 13 1016.7R
SAPELO ISLAND    1400   88     300/  7     1017.0S
WINYAH BAY       1300   85     260/  8     1014.0S
LAKE MURRAY      1400   83     280/  8/ 15 1014.2S
ACE BASIN NERRS  1300   84     280/  3     1016.0S


...C-MAN AND BUOY OBSERVATIONS...

STATION/POSITION TIME  TEMP    WIND        PRES    WAVE   SWELL
                       AIR SEA DIR/SP/G            HT/PER HT/PER/DIR
                 (UTC) (F)     (DEG/KT/KT) (MB)    (FT/S) (FT/S/D)
BUOY 41004       1350   85 85  280/ 12/ 14 1015.2R   4/ 6   3/210/ 6
BUOY 41008       1350   84 86  280/ 12/ 14 1016.7R   3/ 3   2/ 90/ 8
FOLLY BEACH CMAN 1400   87     260/  7/ 12 1015.6F
CAPERS NS BUOY   1408   86 85  270/ 10/ 12 1015.2F
FRIPP NS BUOY    1408   86 87  300/ 12/ 14 1015.4F
5E ST. MARYS GA  1401      85                N/A     2/ 5


STATION/POSITION TIME  TEMP    WIND        PRES    WAVE   SWELL
                       AIR SEA DIR/SP/G            HT/PER HT/PER/DIR
                 (UTC) (F)     (DEG/KT/KT) (MB)    (FT/S) (FT/S/D)
FRYING PAN BUOY  1400   85 85  250/ 14/ 16 1014.1F
BUOY 41025       1250   84 85  240/ 17/ 19 1012.5    4/ 6   2/140/ 9
CAPE LOOKOUT NC  1400   86     240/ 13/ 16 1012.7R
BUOY 41002       1350   84 85  240/ 10/ 12 1016.6F   3/ 6   3/250/ 6
BUOY 41010       1320   85 86  270/ 14/ 16 1017.8R
ST AUGUSTINE FL  1400   85 83  330/  6/  7 1018.8R

$$




USA.gov is the U.S. government's official web portal to all federal, state and local government web resources and services.